[[{"header":{"parameterUnit":"m.s-1","parameterCategory":1,"la1":30.2991,"la2":30.254,"lo1":-89.0895,"lo2":-89.0444,"dy":0.0017,"dx":0.0017,"nx":28,"ny":28,"refTime":"2025-05-22T21:00:00:Z","depth":0,"parameterNumber":2,"parameterNumberName":"U-component_of_WINDS"},"data":[0,0,0,0,0,0,0,0,0,0,0,0,0,0,0,0,0,0,0,0,0,0,0,0,0,0,0,0,0,0,0,0,0,0,0,0,0,0,0,0,0,0,0,0,0,0,0,0,0,0,0,0,0,0,0,0,0,0,1.888,1.888,0,1.8952,1.8953,1.8954,1.8932,1.893,1.8929,1.8927,1.9003,1.9007,1.901,0,0,0,0,0,0,0,0,0,0,0,0,0,1.8722,1.8725,1.888,1.8881,1.8881,1.8952,1.8953,1.8954,1.8932,1.893,1.8928,1.8927,1.9002,1.9006,1.901,0,0,0,0,0,0,0,0,0,0,0,0,0,1.8792,1.8726,1.8879,1.8879,1.888,1.8952,1.8953,1.8955,1.8933,1.893,1.8928,1.8926,1.9001,1.9006,1.9011,1.9089,0,0,1.9027,1.9029,0,0,0,0,0,0,0,0,1.8789,1.8798,1.8878,1.8879,1.888,1.8931,1.8926,1.8999,1.8933,1.8913,1.8927,1.8925,1.8981,1.8988,1.9006,1.9092,1.9095,1.9027,1.903,1.9032,1.9034,0,0,0,0,0,0,0,1.8784,1.8795,1.8908,1.8879,1.888,1.8875,1.8883,1.8939,1.8959,1.8914,1.8913,1.8922,1.8981,1.9001,1.9008,1.9096,1.9027,1.9031,1.9035,1.9037,1.9249,1.9251,0,0,0,0,0,0,1.8778,1.8791,1.8906,1.8911,1.8828,1.888,1.8888,1.8917,1.8958,1.8962,1.8923,1.892,1.8994,1.9002,1.9011,1.9103,1.9032,1.9037,1.904,1.9246,1.9249,1.9252,0,0,0,0,0,0,1.8775,1.8789,1.8903,1.8851,1.8865,1.8885,1.8917,1.8919,1.894,1.8965,1.8968,1.8941,1.8992,1.9003,1.9069,1.9106,1.9039,1.9044,1.9243,1.9247,1.9251,1.929,0,0,0,0,0,0,1.877,1.8787,1.8817,1.8851,1.8868,1.896,1.892,1.8922,1.8948,1.8945,1.8982,1.8986,1.8991,1.9061,1.9074,1.9112,1.9048,1.924,1.9245,1.925,1.9286,1.9295,1.9303,0,0,0,0,0,1.8765,1.8826,1.8819,1.8833,1.8905,1.8962,1.8972,1.8976,1.8952,1.8981,1.8998,1.8985,1.91,1.9068,1.9083,1.9122,1.9238,1.9244,1.9249,1.9282,1.9293,1.9303,0,0,0,0,0,0,1.8796,1.883,1.8823,1.8897,1.8927,1.8959,1.8996,1.8988,1.9026,1.9021,1.9026,1.9034,1.9101,1.9119,1.9083,1.9199,1.9165,1.9174,1.9185,1.9196,1.9205,1.9199,1.9052,0,0,0,0,0,1.8811,1.8855,1.8883,1.8945,1.896,1.8976,1.9001,1.9002,1.9033,1.9046,1.9067,1.9099,1.9142,1.917,1.9211,1.9289,1.9296,1.9323,1.9331,1.9338,1.9346,1.9387,1.9399,1.9271,1.9271,1.9271,0,0,1.8843,1.8868,1.8895,1.8952,1.8975,1.902,1.8987,1.9036,1.9069,1.9054,1.9117,1.9134,1.9169,1.924,1.9273,1.9257,1.9383,1.9346,1.9351,1.9354,1.9394,1.9406,1.9417,1.9275,1.9274,1.9273,0,0,1.8925,1.8948,1.9002,1.9026,1.9061,1.9071,1.9084,1.9118,1.9128,1.9191,1.918,1.922,1.9295,1.932,1.9343,1.9434,1.9423,1.9447,1.9491,1.9532,1.9542,1.9551,1.9582,1.9594,1.9455,1.9455,1.9455,0,1.896,1.9027,1.9031,1.9081,1.9106,1.9093,1.9148,1.9172,1.9219,1.9237,1.9218,1.9311,1.9334,1.941,1.9433,1.9452,1.9466,1.9442,1.954,1.9549,1.9557,1.9588,1.96,1.9457,1.9457,1.9457,1.9456,0,1.9069,1.9116,1.9155,1.92,1.923,1.9282,1.9294,1.9324,1.9322,1.9334,1.9398,1.9426,1.9472,1.949,1.9489,1.9567,1.9556,1.9539,1.9504,1.9572,1.96,1.9612,1.9461,1.946,1.9459,1.9459,0,0,1.9171,1.9218,1.9232,1.9252,1.9291,1.9327,1.9379,1.9423,1.9448,1.9482,1.9525,1.9588,1.9572,1.9598,1.96,1.9636,1.9705,1.9614,1.9615,1.9629,1.9791,1.9803,1.9816,1.9698,1.9701,1.9702,1.9788,0,1.9255,1.9345,1.935,1.9432,1.9474,1.9463,1.9508,1.9537,1.955,1.9588,1.9602,1.9646,1.9623,1.9638,1.9673,1.9689,1.9737,1.9683,1.9738,1.974,1.9728,1.9831,1.9844,1.9924,1.9799,1.9801,1.9802,0,1.9365,1.9401,1.9487,1.9518,1.9537,1.9577,1.9618,1.9655,1.9687,1.9694,1.9722,1.9719,1.9772,1.9737,1.981,1.9773,1.9796,1.9807,1.981,1.9815,1.9775,1.9838,1.9949,1.9961,1.982,1.9819,1.9817,0,1.9429,1.95,1.956,1.9578,1.9617,1.9645,1.9663,1.9693,1.9719,1.9755,1.9772,1.9814,1.9837,1.987,1.9878,1.9852,1.9951,1.9916,1.9957,1.9957,1.9978,1.9976,2.0093,1.9994,1.9994,1.9994,1.9994,0,1.9522,1.9575,1.9589,1.9626,1.9685,1.969,1.9748,1.9764,1.9791,1.9831,1.9824,1.9862,1.9871,1.9911,1.9918,1.9977,1.9987,1.9994,1.9995,1.9994,1.9993,2.0008,2.0003,1.9997,1.9997,1.9996,1.9995,0,1.9604,1.9616,1.968,1.9712,1.9721,1.9763,1.979,1.9826,1.9837,1.9888,1.99,1.9919,1.9965,1.9977,2.0032,2.0037,2.0106,2.0102,2.0095,2.0094,2.0134,2.013,2.0265,2.0282,2.0173,2.0174,2.0175,0,1.9661,1.9702,1.9737,1.9763,1.9782,1.9824,1.9851,1.9858,1.9886,1.9925,1.9956,2.0001,2.0038,2.0112,2.0131,2.0173,2.017,2.0214,2.0176,2.0173,2.0169,2.0166,2.017,2.0221,2.0222,2.0223,2.0224,0,1.9762,1.9766,1.9804,1.9845,1.9877,1.9909,1.994,1.9962,1.9973,2.0005,2.0052,2.008,2.0137,2.0181,2.0224,2.0242,2.0235,2.0236,2.0247,2.0246,2.024,2.0243,2.0113,2.0232,2.0232,2.0231,2.023,2.023,1.9833,1.9868,1.9898,1.9941,1.9965,1.9994,2.0029,2.0045,2.0084,2.013,2.0132,2.0182,2.0213,2.027,2.0291,2.033,2.0317,2.0334,2.0338,2.0342,2.0345,2.0234,2.0338,2.0338,2.0338,2.0338,2.0338,0,1.9932,1.9951,1.9991,2.0034,2.0068,2.0058,2.0092,2.0121,2.0165,2.0195,2.0231,2.0284,2.0328,2.035,2.0393,2.0421,2.0418,2.0432,2.0429,2.0433,2.0355,2.034,2.0433,2.0433,2.0433,2.0433,2.0433,2.0433,1.9988,2.0046,2.0054,2.0124,2.0143,2.0192,2.0212,2.0239,2.0262,2.0322,2.0358,2.0372,2.0398,2.0443,2.0483,2.0488,2.0504,2.0519,2.0523,2.0449,2.0439,2.043,2.0416,2.0523,2.0523,2.0598,2.0598,2.0599]},{"header":{"parameterUnit":"m.s-1","parameterCategory":1,"la1":30.2991,"la2":30.254,"lo1":-89.0895,"lo2":-89.0444,"dy":0.0017,"dx":0.0017,"nx":28,"ny":28,"refTime":"2025-05-22T21:00:00:Z","depth":0,"parameterNumber":3,"parameterNumberName":"V-component_of_WINDS"},"data":[0,0,0,0,0,0,0,0,0,0,0,0,0,0,0,0,0,0,0,0,0,0,0,0,0,0,0,0,0,0,0,0,0,0,0,0,0,0,0,0,0,0,0,0,0,0,0,0,0,0,0,0,0,0,0,0,0,0,1.5084,1.5085,0,1.5155,1.5156,1.5157,1.5148,1.5147,1.5145,1.5144,1.5216,1.5219,1.5222,0,0,0,0,0,0,0,0,0,0,0,0,0,1.4939,1.4942,1.5084,1.5085,1.5086,1.5155,1.5156,1.5157,1.5148,1.5146,1.5145,1.5144,1.5215,1.5219,1.5222,0,0,0,0,0,0,0,0,0,0,0,0,0,1.5005,1.4943,1.5084,1.509,1.5091,1.5155,1.5156,1.5157,1.5148,1.5146,1.5145,1.5143,1.5214,1.5218,1.5223,1.5285,0,0,1.5237,1.5239,0,0,0,0,0,0,0,0,1.5002,1.5011,1.5088,1.5089,1.5091,1.5141,1.5131,1.52,1.5149,1.5126,1.5144,1.5142,1.5192,1.5199,1.5216,1.5289,1.5292,1.5237,1.524,1.5242,1.5243,0,0,0,0,0,0,0,1.4997,1.5008,1.5112,1.5089,1.5091,1.5088,1.5096,1.5144,1.5168,1.5128,1.5128,1.5136,1.5193,1.5211,1.5217,1.5293,1.5237,1.5241,1.5244,1.5245,1.5421,1.5423,0,0,0,0,0,0,1.4991,1.5004,1.511,1.5114,1.5041,1.5092,1.5101,1.5126,1.5168,1.5172,1.5138,1.5136,1.5205,1.5212,1.522,1.5297,1.5242,1.5246,1.5248,1.5419,1.5422,1.5424,0,0,0,0,0,0,1.4988,1.5001,1.5107,1.5059,1.5072,1.5097,1.5126,1.5129,1.5147,1.5175,1.5179,1.5152,1.5204,1.5214,1.5269,1.5299,1.5248,1.5252,1.5417,1.542,1.5423,1.545,0,0,0,0,0,0,1.4984,1.5,1.5024,1.506,1.5075,1.5156,1.5128,1.5131,1.5155,1.5153,1.519,1.5194,1.5203,1.5263,1.5274,1.5304,1.5255,1.5415,1.5419,1.5422,1.5447,1.5454,1.546,0,0,0,0,0,1.4979,1.5028,1.5025,1.5038,1.5106,1.5157,1.5166,1.5176,1.5158,1.5182,1.52,1.5193,1.5294,1.5269,1.5281,1.5313,1.5413,1.5417,1.5422,1.5444,1.5452,1.5459,0,0,0,0,0,0,1.4995,1.5033,1.503,1.5093,1.5122,1.5156,1.5187,1.5184,1.5219,1.5215,1.5225,1.5234,1.529,1.5307,1.5278,1.5376,1.5351,1.5358,1.5363,1.5372,1.5378,1.5373,1.5259,0,0,0,0,0,1.5006,1.5045,1.5076,1.5128,1.5143,1.5163,1.5185,1.519,1.5221,1.5233,1.5255,1.5284,1.5323,1.5348,1.5385,1.5449,1.5457,1.5477,1.5483,1.5488,1.5495,1.553,1.554,1.5439,1.5439,1.5439,0,0,1.5029,1.5055,1.5079,1.5132,1.5155,1.5196,1.5173,1.5216,1.5246,1.5239,1.5294,1.5311,1.5345,1.5405,1.5433,1.5421,1.5524,1.5494,1.5498,1.5502,1.5536,1.5546,1.5554,1.5442,1.5441,1.5441,0,0,1.5092,1.5115,1.5161,1.5185,1.5221,1.5233,1.5244,1.5279,1.529,1.5345,1.5341,1.5376,1.5442,1.5466,1.5487,1.5559,1.5554,1.5571,1.5605,1.5639,1.5647,1.5654,1.5681,1.569,1.5577,1.5577,1.5577,0,1.5116,1.5176,1.5185,1.5229,1.5253,1.5249,1.5296,1.5319,1.5364,1.5381,1.5367,1.545,1.5472,1.5538,1.5556,1.5573,1.5586,1.5567,1.5645,1.5653,1.5659,1.5685,1.5695,1.5578,1.5578,1.5578,1.5578,0,1.5204,1.5246,1.528,1.5325,1.5352,1.5397,1.5413,1.544,1.5442,1.5456,1.5512,1.5538,1.5581,1.5597,1.5599,1.5664,1.5655,1.5643,1.5618,1.5671,1.5695,1.5704,1.5581,1.558,1.558,1.5579,0,0,1.528,1.5329,1.5341,1.5362,1.5401,1.5433,1.5478,1.552,1.5543,1.5575,1.5613,1.5669,1.5658,1.5682,1.5687,1.5717,1.5773,1.5701,1.5702,1.5715,1.5847,1.5856,1.5868,1.577,1.5772,1.5773,1.5844,0,1.5347,1.5427,1.5437,1.5508,1.5547,1.5544,1.5583,1.5611,1.5626,1.5661,1.5676,1.5716,1.5698,1.5713,1.5742,1.576,1.58,1.5755,1.5806,1.5808,1.5799,1.588,1.589,1.5956,1.5854,1.5855,1.5856,0,1.5436,1.5471,1.5547,1.5581,1.5597,1.5633,1.5672,1.5705,1.5737,1.5745,1.5772,1.5773,1.582,1.5792,1.5856,1.5825,1.5846,1.5858,1.5861,1.5867,1.5836,1.5889,1.5977,1.5988,1.5871,1.587,1.5869,0,1.5485,1.555,1.5604,1.5622,1.5662,1.5687,1.5705,1.5735,1.576,1.5794,1.581,1.5849,1.5871,1.5901,1.5912,1.5891,1.5976,1.5949,1.5984,1.5984,1.6003,1.6002,1.6098,1.6015,1.6015,1.6015,1.6015,0,1.5559,1.5606,1.5627,1.566,1.5712,1.5722,1.5773,1.579,1.5817,1.5853,1.5852,1.5886,1.5899,1.5935,1.5944,1.5996,1.6006,1.6014,1.6016,1.6015,1.6014,1.6029,1.6025,1.6018,1.6017,1.6017,1.6016,0,1.5623,1.5639,1.5697,1.5731,1.5741,1.5778,1.5807,1.5839,1.5852,1.5898,1.591,1.5931,1.5974,1.5988,1.6039,1.6045,1.6106,1.6104,1.6096,1.6097,1.6132,1.6129,1.6241,1.6257,1.6163,1.6164,1.6165,0,1.567,1.5706,1.5744,1.5768,1.5788,1.5827,1.5852,1.5863,1.589,1.5929,1.5956,1.5998,1.6033,1.6101,1.6121,1.616,1.6159,1.6196,1.6165,1.6163,1.6161,1.6159,1.6163,1.6202,1.6203,1.6204,1.6204,0,1.5752,1.5758,1.5795,1.5835,1.5865,1.5897,1.5928,1.5948,1.5963,1.5993,1.6037,1.6063,1.6116,1.6158,1.6198,1.6216,1.6214,1.6214,1.6224,1.6224,1.6218,1.6223,1.6113,1.6211,1.6211,1.621,1.621,1.6209,1.581,1.5842,1.5874,1.5915,1.5939,1.5968,1.6,1.6018,1.6055,1.6099,1.6103,1.615,1.6181,1.6234,1.6255,1.6292,1.6281,1.6296,1.63,1.6304,1.6307,1.6212,1.6299,1.6299,1.6298,1.6298,1.6298,0,1.5893,1.5913,1.5951,1.5994,1.6027,1.6021,1.6054,1.6082,1.6124,1.6153,1.6187,1.6238,1.6278,1.6302,1.6342,1.6368,1.6367,1.6378,1.6377,1.6381,1.6314,1.6301,1.6378,1.6378,1.6378,1.6378,1.6378,1.6378,1.594,1.5994,1.6004,1.607,1.609,1.6137,1.6157,1.6183,1.6207,1.6263,1.6298,1.6312,1.6339,1.6382,1.6419,1.6425,1.6441,1.6453,1.6458,1.6394,1.6386,1.6378,1.6367,1.6456,1.6456,1.6522,1.6523,1.6523]}]]